{"data":{"norad_id":49442,"intl_designator":"2021-104AL","name":"STARLINK-3098","alt_names":[],"object_type":"PAYLOAD","status":"ACTIVE","operator":null,"country":"US","launch_date":"2021-11-13","launch_site_code":"AFETR","launch_vehicle":null,"mission":null,"orbit_class":"UNKNOWN","rcs_meters":null,"size_class":null,"mass_kg":null,"dimensions":null,"purposes":["comms"],"wikipedia_slug":null,"has_3d_model":false,"image_url":null,"decayed_at":null,"tle_current":{"epoch":"2026-09-20T04:00:03.000096Z","epoch_age_seconds":70114,"freshness":"FRESH","line1":"1 49442U 21104AL  26263.16670139  .01234578  00000+0  15887-1 0  9992","line2":"2 49442  53.1588  37.6868 0001445 106.6296 350.9587 15.55921913  5910","mean_motion":15.55921913,"eccentricity":0.0001445,"inclination_deg":53.1588,"raan_deg":37.6868,"arg_perigee_deg":106.6296,"mean_anomaly_deg":350.9587,"bstar":0.015887,"rev_number":591,"period_min":92.549631698644,"perigee_km":398.49470058354,"apogee_km":400.45343018144,"semimajor_km":6777.6110653825,"source":"CELESTRAK","updated_at":"2026-09-20T09:00:39.261493Z"}}}